TimeCST,TemperatureF,Dew PointF,Humidity,Sea Level PressureIn,VisibilityMPH,Wind Direction,Wind SpeedMPH,Gust SpeedMPH,PrecipitationIn,Events,Conditions,WindDirDegrees,DateUTC
12:23 AM,48.2,46.4,93,29.99,10.0,West,5.8,-,N/A,,Overcast,280,2012-11-06 06:23:00
12:34 AM,48.2,46.4,93,29.99,10.0,NW,5.8,-,N/A,,Overcast,310,2012-11-06 06:34:00
12:55 AM,47.5,46.9,98,29.99,10.0,WNW,3.5,-,N/A,,Overcast,300,2012-11-06 06:55:00
1:55 AM,47.3,46.6,97,29.99,10.0,North,4.6,-,N/A,,Overcast,360,2012-11-06 07:55:00
2:24 AM,46.4,46.4,100,29.99,10.0,Calm,Calm,-,N/A,,Scattered Clouds,0,2012-11-06 08:24:00
2:55 AM,44.4,43.5,97,29.99,9.0,North,5.8,-,N/A,,Clear,350,2012-11-06 08:55:00
3:30 AM,44.6,42.8,93,29.99,3.0,Calm,Calm,-,N/A,,Clear,0,2012-11-06 09:30:00
3:31 AM,44.6,42.8,93,29.99,2.0,Calm,Calm,-,N/A,,Clear,0,2012-11-06 09:31:00
3:32 AM,42.8,42.8,100,29.99,1.5,Calm,Calm,-,N/A,,Clear,0,2012-11-06 09:32:00
3:33 AM,42.8,42.8,100,29.99,1.0,Calm,Calm,-,N/A,,Clear,0,2012-11-06 09:33:00
3:35 AM,42.8,41.0,93,29.99,0.8,Calm,Calm,-,N/A,,Clear,0,2012-11-06 09:35:00
3:38 AM,41.0,41.0,100,29.99,0.5,Calm,Calm,-,N/A,Fog,Fog,0,2012-11-06 09:38:00
3:40 AM,41.0,41.0,100,29.99,0.5,Calm,Calm,-,N/A,Fog,Fog,0,2012-11-06 09:40:00
3:48 AM,42.8,41.0,93,29.99,0.5,Calm,Calm,-,N/A,Fog,Fog,0,2012-11-06 09:48:00
3:49 AM,42.8,41.0,93,29.99,0.5,Calm,Calm,-,N/A,Fog,Fog,0,2012-11-06 09:49:00
3:55 AM,42.3,41.7,98,30.00,0.8,West,3.5,-,N/A,,Clear,280,2012-11-06 09:55:00
3:58 AM,41.0,41.0,100,30.00,0.5,WNW,3.5,-,N/A,Fog,Fog,290,2012-11-06 09:58:00
3:59 AM,41.0,41.0,100,30.00,0.5,WNW,3.5,-,N/A,Fog,Fog,290,2012-11-06 09:59:00
4:02 AM,41.0,41.0,100,30.00,0.5,WNW,3.5,-,N/A,Fog,Fog,300,2012-11-06 10:02:00
4:05 AM,41.0,39.2,93,30.00,0.8,NW,3.5,-,N/A,,Clear,310,2012-11-06 10:05:00
4:06 AM,41.0,41.0,100,30.00,0.8,NW,3.5,-,N/A,,Clear,310,2012-11-06 10:06:00
4:07 AM,41.0,41.0,100,30.00,1.0,NW,3.5,-,N/A,,Clear,310,2012-11-06 10:07:00
4:09 AM,41.0,41.0,100,30.00,1.2,NW,4.6,-,N/A,,Clear,310,2012-11-06 10:09:00
4:10 AM,41.0,41.0,100,30.00,1.8,NW,3.5,-,N/A,,Clear,310,2012-11-06 10:10:00
4:11 AM,41.0,41.0,100,30.00,2.0,NW,3.5,-,N/A,,Clear,310,2012-11-06 10:11:00
4:13 AM,41.0,41.0,100,30.00,3.0,NW,3.5,-,N/A,,Clear,310,2012-11-06 10:13:00
4:14 AM,41.0,41.0,100,30.00,4.0,WNW,3.5,-,N/A,,Clear,300,2012-11-06 10:14:00
4:16 AM,41.0,41.0,100,30.01,5.0,WNW,4.6,-,N/A,,Clear,300,2012-11-06 10:16:00
4:18 AM,41.0,41.0,100,30.01,5.0,WNW,4.6,-,N/A,,Partly Cloudy,300,2012-11-06 10:18:00
4:27 AM,42.8,42.8,100,30.00,9.0,NNW,3.5,-,N/A,,Mostly Cloudy,340,2012-11-06 10:27:00
4:35 AM,42.8,42.8,100,30.00,9.0,Calm,Calm,-,N/A,,Scattered Clouds,0,2012-11-06 10:35:00
4:45 AM,42.8,42.8,100,30.00,4.0,Calm,Calm,-,N/A,,Scattered Clouds,0,2012-11-06 10:45:00
4:46 AM,42.8,42.8,100,30.00,3.0,Calm,Calm,-,N/A,,Scattered Clouds,0,2012-11-06 10:46:00
4:47 AM,42.8,41.0,93,30.00,2.5,Calm,Calm,-,N/A,,Scattered Clouds,0,2012-11-06 10:47:00
4:48 AM,41.0,41.0,100,30.00,1.8,Calm,Calm,-,N/A,,Scattered Clouds,0,2012-11-06 10:48:00
4:49 AM,41.0,41.0,100,30.00,1.5,Calm,Calm,-,N/A,,Scattered Clouds,0,2012-11-06 10:49:00
4:50 AM,41.0,41.0,100,30.00,1.2,Calm,Calm,-,N/A,,Scattered Clouds,0,2012-11-06 10:50:00
4:54 AM,42.8,42.8,100,30.00,1.2,Calm,Calm,-,N/A,,Scattered Clouds,0,2012-11-06 10:54:00
4:55 AM,42.3,42.1,99,30.00,1.2,Calm,Calm,-,N/A,,Scattered Clouds,0,2012-11-06 10:55:00
4:58 AM,42.8,42.8,100,30.00,1.5,Calm,Calm,-,N/A,,Scattered Clouds,0,2012-11-06 10:58:00
4:59 AM,42.8,42.8,100,30.00,1.2,Calm,Calm,-,N/A,,Scattered Clouds,0,2012-11-06 10:59:00
5:00 AM,42.8,41.0,93,30.00,1.0,Calm,Calm,-,N/A,,Scattered Clouds,0,2012-11-06 11:00:00
5:01 AM,41.0,41.0,100,30.00,0.8,Calm,Calm,-,N/A,,Partly Cloudy,0,2012-11-06 11:01:00
5:02 AM,41.0,41.0,100,30.00,0.5,Calm,Calm,-,N/A,Fog,Fog,0,2012-11-06 11:02:00
5:05 AM,41.0,41.0,100,29.99,0.5,Calm,Calm,-,N/A,Fog,Fog,0,2012-11-06 11:05:00
5:07 AM,41.0,41.0,100,29.99,0.2,Calm,Calm,-,N/A,Fog,Fog,0,2012-11-06 11:07:00
5:09 AM,41.0,41.0,100,29.99,0.2,Calm,Calm,-,N/A,Fog,Fog,0,2012-11-06 11:09:00
5:14 AM,42.8,42.8,100,30.00,0.2,Calm,Calm,-,N/A,Fog,Fog,0,2012-11-06 11:14:00
5:19 AM,42.8,41.0,93,30.00,1.5,Calm,Calm,-,N/A,,Mostly Cloudy,0,2012-11-06 11:19:00
5:20 AM,42.8,41.0,93,30.00,2.0,Calm,Calm,-,N/A,,Mostly Cloudy,0,2012-11-06 11:20:00
5:21 AM,41.0,41.0,100,30.00,3.0,Calm,Calm,-,N/A,,Mostly Cloudy,0,2012-11-06 11:21:00
5:22 AM,41.0,41.0,100,30.00,5.0,Calm,Calm,-,N/A,,Mostly Cloudy,0,2012-11-06 11:22:00
5:26 AM,41.0,41.0,100,30.00,8.0,Calm,Calm,-,N/A,,Mostly Cloudy,0,2012-11-06 11:26:00
5:33 AM,41.0,39.2,93,30.01,4.0,Calm,Calm,-,N/A,,Overcast,0,2012-11-06 11:33:00
5:34 AM,41.0,39.2,93,30.01,2.5,Calm,Calm,-,N/A,,Overcast,0,2012-11-06 11:34:00
5:35 AM,39.2,39.2,100,30.01,1.8,Calm,Calm,-,N/A,,Overcast,0,2012-11-06 11:35:00
5:36 AM,39.2,39.2,100,30.01,1.2,Calm,Calm,-,N/A,,Overcast,0,2012-11-06 11:36:00
5:37 AM,39.2,39.2,100,30.01,1.0,Calm,Calm,-,N/A,,Overcast,0,2012-11-06 11:37:00
5:38 AM,39.2,39.2,100,30.01,0.8,Calm,Calm,-,N/A,,Overcast,0,2012-11-06 11:38:00
5:40 AM,39.2,39.2,100,30.01,0.5,Calm,Calm,-,N/A,Fog,Fog,0,2012-11-06 11:40:00
5:41 AM,39.2,39.2,100,30.01,0.5,Calm,Calm,-,N/A,Fog,Fog,0,2012-11-06 11:41:00
5:42 AM,39.2,39.2,100,30.01,0.5,Calm,Calm,-,N/A,Fog,Fog,0,2012-11-06 11:42:00
5:43 AM,41.0,39.2,93,30.01,0.5,Calm,Calm,-,N/A,Fog,Fog,0,2012-11-06 11:43:00
5:44 AM,41.0,39.2,93,30.01,0.5,Calm,Calm,-,N/A,Fog,Fog,0,2012-11-06 11:44:00
5:45 AM,41.0,39.2,93,30.01,0.2,Calm,Calm,-,N/A,Fog,Fog,0,2012-11-06 11:45:00
5:50 AM,41.0,41.0,100,30.01,0.2,Calm,Calm,-,N/A,Fog,Fog,0,2012-11-06 11:50:00
5:54 AM,41.0,41.0,100,30.01,0.5,Calm,Calm,-,N/A,Fog,Fog,0,2012-11-06 11:54:00
5:55 AM,41.0,40.6,99,30.01,0.5,Calm,Calm,-,0.00,Fog,Fog,0,2012-11-06 11:55:00
5:59 AM,41.0,41.0,100,30.01,0.5,Calm,Calm,-,N/A,Fog,Fog,0,2012-11-06 11:59:00
6:00 AM,41.0,41.0,100,30.01,0.8,Calm,Calm,-,N/A,,Mist,0,2012-11-06 12:00:00
6:01 AM,41.0,41.0,100,30.01,0.8,Calm,Calm,-,N/A,,Mist,0,2012-11-06 12:01:00
6:02 AM,41.0,41.0,100,30.01,1.0,Calm,Calm,-,N/A,,Mist,0,2012-11-06 12:02:00
6:03 AM,41.0,41.0,100,30.01,1.2,Calm,Calm,-,N/A,,Overcast,0,2012-11-06 12:03:00
6:07 AM,41.0,41.0,100,30.02,1.2,Calm,Calm,-,N/A,,Overcast,0,2012-11-06 12:07:00
6:09 AM,41.0,41.0,100,30.02,1.5,Calm,Calm,-,N/A,,Overcast,0,2012-11-06 12:09:00
6:11 AM,41.0,41.0,100,30.02,1.2,Calm,Calm,-,N/A,,Overcast,0,2012-11-06 12:11:00
6:14 AM,41.0,41.0,100,30.02,1.2,Calm,Calm,-,N/A,,Overcast,0,2012-11-06 12:14:00
6:17 AM,41.0,41.0,100,30.02,1.0,Calm,Calm,-,N/A,,Mist,0,2012-11-06 12:17:00
6:20 AM,41.0,41.0,100,30.02,0.8,Calm,Calm,-,N/A,,Mist,0,2012-11-06 12:20:00
6:23 AM,41.0,41.0,100,30.02,0.5,West,3.5,-,N/A,Fog,Fog,280,2012-11-06 12:23:00
6:25 AM,41.0,41.0,100,30.02,0.5,Calm,Calm,-,N/A,Fog,Fog,0,2012-11-06 12:25:00
6:27 AM,41.0,41.0,100,30.02,0.2,West,3.5,-,N/A,Fog,Fog,280,2012-11-06 12:27:00
6:28 AM,41.0,41.0,100,30.02,0.2,West,3.5,-,N/A,Fog,Fog,270,2012-11-06 12:28:00
6:29 AM,41.0,41.0,100,30.02,0.2,West,3.5,-,N/A,Fog,Fog,270,2012-11-06 12:29:00
6:30 AM,41.0,41.0,100,30.02,0.2,West,3.5,-,N/A,Fog,Fog,270,2012-11-06 12:30:00
6:31 AM,41.0,41.0,100,30.02,0.2,Calm,Calm,-,N/A,Fog,Fog,0,2012-11-06 12:31:00
6:51 AM,41.0,41.0,100,30.04,0.2,West,4.6,-,N/A,Fog,Fog,260,2012-11-06 12:51:00
6:52 AM,41.0,41.0,100,30.04,0.2,West,4.6,-,N/A,Fog,Fog,260,2012-11-06 12:52:00
6:53 AM,42.8,41.0,93,30.04,0.2,WSW,4.6,-,N/A,Fog,Fog,250,2012-11-06 12:53:00
6:54 AM,42.8,42.8,100,30.04,0.2,WSW,3.5,-,N/A,Fog,Fog,250,2012-11-06 12:54:00
6:55 AM,42.3,42.1,99,30.04,0.2,WSW,4.6,-,0.00,Fog,Fog,250,2012-11-06 12:55:00
6:56 AM,42.8,42.8,100,30.04,0.5,WSW,4.6,-,N/A,Fog,Fog,250,2012-11-06 12:56:00
6:58 AM,42.8,42.8,100,30.04,0.8,West,4.6,-,N/A,,Overcast,260,2012-11-06 12:58:00
6:59 AM,42.8,42.8,100,30.04,1.0,West,3.5,-,N/A,,Overcast,260,2012-11-06 12:59:00
7:00 AM,42.8,42.8,100,30.04,1.5,Calm,Calm,-,N/A,,Overcast,0,2012-11-06 13:00:00
7:01 AM,42.8,42.8,100,30.04,2.5,Calm,Calm,-,N/A,,Overcast,0,2012-11-06 13:01:00
7:02 AM,42.8,42.8,100,30.04,3.0,Calm,Calm,-,N/A,,Overcast,0,2012-11-06 13:02:00
7:03 AM,42.8,42.8,100,30.04,5.0,Calm,Calm,-,N/A,,Overcast,0,2012-11-06 13:03:00
7:31 AM,44.6,44.6,100,30.05,10.0,Calm,Calm,-,N/A,,Overcast,0,2012-11-06 13:31:00
7:52 AM,46.4,46.4,100,30.06,10.0,NNW,5.8,-,N/A,,Overcast,340,2012-11-06 13:52:00
7:55 AM,46.9,46.8,99,30.06,10.0,NNW,4.6,-,N/A,,Overcast,330,2012-11-06 13:55:00
8:09 AM,46.4,46.4,100,30.06,10.0,North,3.5,-,N/A,,Overcast,360,2012-11-06 14:09:00
8:15 AM,48.2,48.2,100,30.06,10.0,NNW,3.5,-,N/A,,Overcast,330,2012-11-06 14:15:00
8:50 AM,48.2,48.2,100,30.06,10.0,NNW,3.5,-,N/A,,Overcast,330,2012-11-06 14:50:00
8:55 AM,48.9,48.9,100,30.06,10.0,NW,5.8,-,N/A,,Overcast,310,2012-11-06 14:55:00
9:10 AM,48.2,48.2,100,30.06,10.0,North,6.9,-,N/A,,Overcast,10,2012-11-06 15:10:00
9:43 AM,50.0,48.2,94,30.07,10.0,Variable,4.6,-,N/A,,Overcast,0,2012-11-06 15:43:00
9:52 AM,51.8,46.4,82,30.06,10.0,NW,3.5,-,N/A,,Overcast,310,2012-11-06 15:52:00
9:55 AM,50.9,46.8,86,30.07,10.0,WNW,5.8,-,N/A,,Overcast,290,2012-11-06 15:55:00
10:43 AM,53.6,46.4,77,30.04,10.0,North,3.5,-,N/A,,Mostly Cloudy,350,2012-11-06 16:43:00
10:55 AM,53.8,45.5,74,30.04,10.0,WSW,4.6,-,N/A,,Mostly Cloudy,250,2012-11-06 16:55:00
11:07 AM,55.4,46.4,72,30.04,10.0,WNW,3.5,-,N/A,,Scattered Clouds,290,2012-11-06 17:07:00
11:14 AM,55.4,46.4,72,30.03,10.0,West,4.6,-,N/A,,Mostly Cloudy,280,2012-11-06 17:14:00
11:16 AM,55.4,46.4,72,30.03,10.0,NW,3.5,-,N/A,,Mostly Cloudy,310,2012-11-06 17:16:00
11:20 AM,55.4,46.4,72,30.03,10.0,Calm,Calm,-,N/A,,Mostly Cloudy,0,2012-11-06 17:20:00
11:22 AM,55.4,46.4,72,30.03,10.0,Calm,Calm,-,N/A,,Mostly Cloudy,0,2012-11-06 17:22:00
11:24 AM,55.4,44.6,67,30.03,10.0,Variable,4.6,-,N/A,,Mostly Cloudy,0,2012-11-06 17:24:00
11:26 AM,55.4,44.6,67,30.03,10.0,West,3.5,-,N/A,,Mostly Cloudy,280,2012-11-06 17:26:00
11:28 AM,55.4,44.6,67,30.03,10.0,Variable,4.6,-,N/A,,Mostly Cloudy,0,2012-11-06 17:28:00
11:32 AM,57.2,44.6,63,30.03,10.0,Variable,4.6,-,N/A,,Mostly Cloudy,0,2012-11-06 17:32:00
11:33 AM,57.2,44.6,63,30.03,10.0,Variable,6.9,-,N/A,,Mostly Cloudy,0,2012-11-06 17:33:00
11:34 AM,57.2,44.6,63,30.03,10.0,NNW,6.9,-,N/A,,Mostly Cloudy,340,2012-11-06 17:34:00
11:35 AM,57.2,44.6,63,30.03,10.0,NNW,6.9,-,N/A,,Mostly Cloudy,330,2012-11-06 17:35:00
11:36 AM,57.2,44.6,63,30.03,10.0,NW,5.8,-,N/A,,Mostly Cloudy,320,2012-11-06 17:36:00
11:44 AM,57.2,44.6,63,30.04,10.0,NW,6.9,-,N/A,,Overcast,320,2012-11-06 17:44:00
11:46 AM,57.2,44.6,63,30.03,10.0,NNW,5.8,-,N/A,,Overcast,330,2012-11-06 17:46:00
11:47 AM,57.2,44.6,63,30.04,10.0,NNW,4.6,-,N/A,,Overcast,330,2012-11-06 17:47:00
11:49 AM,57.2,44.6,63,30.04,10.0,NNW,8.1,-,N/A,,Overcast,340,2012-11-06 17:49:00
11:50 AM,57.2,44.6,63,30.04,10.0,NNW,6.9,-,N/A,,Overcast,340,2012-11-06 17:50:00
11:55 AM,56.1,44.6,65,30.04,10.0,NNW,8.1,-,N/A,,Overcast,330,2012-11-06 17:55:00
12:06 PM,57.2,44.6,63,30.03,10.0,NNW,8.1,-,N/A,,Mostly Cloudy,330,2012-11-06 18:06:00
12:12 PM,57.2,44.6,63,30.03,10.0,NW,6.9,-,N/A,,Mostly Cloudy,310,2012-11-06 18:12:00
12:13 PM,57.2,44.6,63,30.03,10.0,WNW,8.1,-,N/A,,Mostly Cloudy,300,2012-11-06 18:13:00
12:20 PM,55.4,44.6,67,30.03,10.0,NW,9.2,-,N/A,,Mostly Cloudy,310,2012-11-06 18:20:00
12:27 PM,55.4,44.6,67,30.02,10.0,WNW,10.4,-,N/A,,Mostly Cloudy,300,2012-11-06 18:27:00
12:41 PM,57.2,44.6,63,30.02,10.0,NW,9.2,-,N/A,,Overcast,310,2012-11-06 18:41:00
12:55 PM,57.0,44.1,62,30.01,10.0,NW,9.2,-,N/A,,Overcast,310,2012-11-06 18:55:00
1:55 PM,57.6,43.5,59,29.99,10.0,WNW,9.2,-,N/A,,Overcast,300,2012-11-06 19:55:00
2:55 PM,57.4,42.6,58,29.99,10.0,NW,10.4,-,N/A,,Overcast,310,2012-11-06 20:55:00
3:55 PM,55.8,43.0,62,29.99,10.0,West,8.1,-,N/A,,Overcast,280,2012-11-06 21:55:00
4:55 PM,54.1,43.9,68,30.00,10.0,WNW,5.8,-,N/A,,Overcast,300,2012-11-06 22:55:00
5:18 PM,53.6,44.6,72,30.00,10.0,WNW,4.6,-,N/A,,Overcast,300,2012-11-06 23:18:00
5:55 PM,53.1,44.2,72,29.99,10.0,West,4.6,-,N/A,,Overcast,280,2012-11-06 23:55:00
6:55 PM,49.1,43.0,79,30.01,10.0,West,6.9,-,N/A,,Mostly Cloudy,280,2012-11-07 00:55:00
7:55 PM,51.4,43.9,75,30.03,10.0,WNW,6.9,-,N/A,,Overcast,290,2012-11-07 01:55:00
8:32 PM,50.0,42.8,76,30.04,10.0,WNW,6.9,-,N/A,,Overcast,290,2012-11-07 02:32:00
8:55 PM,49.3,43.5,81,30.04,10.0,WNW,9.2,-,N/A,,Mostly Cloudy,290,2012-11-07 02:55:00
9:55 PM,49.5,43.3,79,30.04,10.0,NW,8.1,-,N/A,,Overcast,310,2012-11-07 03:55:00
10:55 PM,48.9,43.2,80,30.04,10.0,NW,8.1,-,N/A,,Overcast,310,2012-11-07 04:55:00
11:55 PM,47.8,42.6,82,30.02,10.0,Calm,Calm,-,N/A,,Overcast,0,2012-11-07 05:55:00